Find Starlink 6341

NORAD ID: 56786 Int'l Des: 2023-078 Owner: SPXS Country: US Constellation: starlink operational
LEOCIRCULAR

实时位置

正在加载3D地球...

关于 Starlink 6341

正在加载描述...

即将过境

Passes for default location (London). Set your location on the main map for personalized predictions.

高度历史

Loading altitude history...

两行轨道根数

1 56786U 23078V 26125.51245588 .00000871 00000-0 80737-4 0 9991
2 56786 69.9996 181.2413 0003551 268.8995 91.1757 14.98335235161688
Epoch: May 5, 2026 • Age: 16 hours

当前状态

高度 578.8 km
速度 7.57 km/s
星下点 -21.67°S, 116.02°W
发射日期 May 31, 2023
运行时间 2.9 years
类型 internet

技术详情

分类 Payload
质量 305.00 kg
干质量 290.00 kg
总质量 305.00 kg
长度 0.20 m
直径 2.80 m
跨度 9.00 m
形状 Box + pan
制造商 SPXS
平台类型 Starlink
阶段状态 In Orbit
所有者/国家 SPXS/US

Most Searched